| time (UTC) | temp C | wind direction | speed KPH | gust KPH | rain 1hr cm | rain 24hr cm | rain mn cm | humidity % | barometer mb |
| 20260906165523 | 19 | 90 | 0.0 | 0.0 | 0.00 | 0.00 | 0.00 | 3 | 1011.5 |
| 20260906165002 | 19 | 67 | 0.0 | 0.0 | 0.00 | 0.00 | 0.00 | 3 | 1010.1 |
| 20260906164441 | 19 | 67 | 0.0 | 0.0 | 0.00 | 0.00 | 0.00 | 3 | 1010.8 |
| 20260906164423 | 19 | 90 | 0.0 | 0.0 | 0.00 | 0.00 | 0.00 | 3 | 1010.7 |
| 20260906163908 | 19 | 67 | 0.0 | 0.0 | 0.00 | 0.00 | 0.00 | 4 | 1008.2 |
| 20260906163347 | 19 | 67 | 0.0 | 0.0 | 0.00 | 0.00 | 0.00 | 3 | 1010.9 |
| 20260906162826 | 19 | 67 | 0.0 | 0.0 | 0.00 | 0.00 | 0.00 | 3 | 1011.3 |
| 20260906162810 | 19 | 90 | 0.0 | 0.0 | 0.00 | 0.00 | 0.00 | 3 | 1011.7 |
| 20260906162255 | 20 | 90 | 0.0 | 0.0 | 0.00 | 0.00 | 0.00 | 3 | 1011.6 |
| 20260906161734 | 20 | 202 | 0.0 | 0.0 | 0.00 | 0.00 | 0.00 | 3 | 1011.9 |
| 20260906161218 | 20 | 135 | 0.0 | 0.0 | 0.00 | 0.00 | 0.00 | 3 | 1012.6 |
| 20260906160658 | 20 | 180 | 0.0 | 0.0 | 0.00 | 0.00 | 0.00 | 3 | 1012.8 |
| 20260906160641 | 20 | 157 | 0.0 | 0.0 | 0.00 | 0.00 | 0.00 | 3 | 1012.6 |
| 20260906160120 | 20 | 135 | 0.0 | 0.0 | 0.00 | 0.00 | 0.00 | 3 | 1012.8 |
| 20260906155605 | 20 | 112 | 4.8 | 9.7 | 0.00 | 0.00 | 0.00 | 3 | 1012.6 |
| 20260906155050 | 20 | 135 | 4.8 | 8.0 | 0.00 | 0.00 | 0.00 | 3 | 1013.4 |
| 20260906154529 | 20 | 135 | 0.0 | 0.0 | 0.00 | 0.00 | 0.00 | 3 | 1014.4 |
| 20260906154506 | 20 | 157 | 4.8 | 4.8 | 0.00 | 0.00 | 0.00 | 3 | 1014.2 |
| 20260906153951 | 20 | 135 | 0.0 | 0.0 | 0.00 | 0.00 | 0.00 | 3 | 1014.8 |
| 20260906153436 | 20 | 135 | 4.8 | 4.8 | 0.00 | 0.00 | 0.00 | 3 | 1013.3 |
| 20260906152915 | 20 | 45 | 0.0 | 0.0 | 0.00 | 0.00 | 0.00 | 3 | 1011.4 |
| 20260906152858 | 20 | 45 | 0.0 | 0.0 | 0.00 | 0.00 | 0.00 | 3 | 1011.4 |
| 20260906152343 | 20 | 90 | 4.8 | 8.0 | 0.00 | 0.00 | 0.00 | 3 | 1013.9 |
| 20260906151822 | 20 | 135 | 4.8 | 8.0 | 0.00 | 0.00 | 0.00 | 3 | 1013.7 |
| 20260906151307 | 20 | 337 | 4.8 | 11.3 | 0.00 | 0.00 | 0.00 | 3 | 1011.4 |
| 20260906150746 | 20 | 90 | 0.0 | 0.0 | 0.00 | 0.00 | 0.00 | 4 | 1011.3 |
| 20260906150730 | 20 | 67 | 6.4 | 14.5 | 0.00 | 0.00 | 0.00 | 4 | 1010.7 |
| 20260906150209 | 20 | 67 | 4.8 | 12.9 | 0.00 | 0.00 | 0.00 | 3 | 1013.3 |
| 20260906145654 | 20 | 22 | 6.4 | 9.7 | 0.00 | 0.00 | 0.00 | 3 | 1012.1 |
| 20260906145139 | 20 | 45 | 6.4 | 11.3 | 0.00 | 0.00 | 0.00 | 4 | 1011.5 |
| 20260906144618 | 20 | 0 | 0.0 | 0.0 | 0.00 | 0.00 | 0.00 | 4 | 1011.8 |
| 20260906144555 | 20 | 45 | 6.4 | 9.7 | 0.00 | 0.00 | 0.00 | 4 | 1011.8 |
| 20260906144040 | 20 | 67 | 6.4 | 9.7 | 0.00 | 0.00 | 0.00 | 4 | 1011.4 |
| 20260906143525 | 20 | 0 | 8.0 | 12.9 | 0.00 | 0.00 | 0.00 | 4 | 1011.1 |
| 20260906143004 | 20 | 315 | 0.0 | 0.0 | 0.00 | 0.00 | 0.00 | 4 | 1011.7 |
| 20260906142947 | 20 | 315 | 8.0 | 17.7 | 0.00 | 0.00 | 0.00 | 4 | 1011.7 |
| 20260906142426 | 20 | 315 | 8.0 | 14.5 | 0.00 | 0.00 | 0.00 | 4 | 1011.2 |
| 20260906141911 | 20 | 0 | 6.4 | 11.3 | 0.00 | 0.00 | 0.00 | 4 | 1012.0 |
| 20260906141356 | 20 | 45 | 11.3 | 24.1 | 0.00 | 0.00 | 0.00 | 4 | 1010.2 |
| 20260906140835 | 20 | 0 | 14.5 | 22.5 | 0.00 | 0.00 | 0.00 | 4 | 1011.4 |
| 20260906140810 | 20 | 0 | 9.7 | 22.5 | 0.00 | 0.00 | 0.00 | 4 | 1011.6 |
| 20260906140255 | 19 | 45 | 11.3 | 22.5 | 0.00 | 0.00 | 0.00 | 4 | 1010.0 |
| 20260906135740 | 20 | 315 | 8.0 | 8.0 | 0.00 | 0.00 | 0.00 | 4 | 1014.4 |
| 20260906135219 | 20 | 180 | 0.0 | 0.0 | 0.00 | 0.00 | 0.00 | 3 | 1015.5 |
| 20260906135203 | 20 | 112 | 11.3 | 16.1 | 0.00 | 0.00 | 0.00 | 3 | 1015.4 |
| 20260906134642 | 20 | 337 | 6.4 | 12.9 | 0.00 | 0.00 | 0.00 | 4 | 1011.8 |
| 20260906134127 | 20 | 315 | 0.0 | 0.0 | 0.00 | 0.00 | 0.00 | 4 | 1014.4 |
| 20260906133612 | 20 | 45 | 6.4 | 14.5 | 0.00 | 0.00 | 0.00 | 4 | 1011.8 |
| 20260906133051 | 19 | 0 | 9.7 | 12.9 | 0.00 | 0.00 | 0.00 | 4 | 1011.5 |
| 20260906133036 | 20 | 337 | 8.0 | 19.3 | 0.00 | 0.00 | 0.00 | 4 | 1011.6 |
| 20260906132514 | 19 | 315 | 9.7 | 19.3 | 0.00 | 0.00 | 0.00 | 4 | 1010.6 |
| 20260906131959 | 18 | 0 | 11.3 | 19.3 | 0.00 | 0.00 | 0.00 | 4 | 1010.7 |
| 20260906131444 | 19 | 337 | 11.3 | 17.7 | 0.00 | 0.00 | 0.00 | 4 | 1010.6 |
| 20260906130923 | 19 | 315 | 11.3 | 14.5 | 0.00 | 0.00 | 0.00 | 4 | 1010.3 |
| 20260906130900 | 19 | 292 | 6.4 | 19.3 | 0.00 | 0.00 | 0.00 | 4 | 1010.3 |
| 20260906130345 | 19 | 270 | 11.3 | 22.5 | 0.00 | 0.00 | 0.00 | 4 | 1012.5 |
| 20260906125830 | 19 | 247 | 8.0 | 12.9 | 0.00 | 0.00 | 0.00 | 4 | 1013.2 |
| 20260906125309 | 19 | 315 | 0.0 | 0.0 | 0.00 | 0.00 | 0.00 | 4 | 1012.0 |
| 20260906125252 | 18 | 337 | 8.0 | 19.3 | 0.00 | 0.00 | 0.00 | 4 | 1011.5 |
| 20260906124737 | 18 | 22 | 8.0 | 16.1 | 0.00 | 0.00 | 0.00 | 4 | 1011.3 |
| 20260906124216 | 20 | 45 | 0.0 | 0.0 | 0.00 | 0.00 | 0.00 | 4 | 1011.8 |
| 20260906123701 | 18 | 202 | 11.3 | 20.9 | 0.00 | 0.00 | 0.00 | 4 | 1014.3 |
| 20260906123140 | 18 | 315 | 9.7 | 12.9 | 0.00 | 0.00 | 0.00 | 4 | 1010.1 |
| 20260906123124 | 18 | 292 | 14.5 | 27.4 | 0.00 | 0.00 | 0.00 | 4 | 1010.5 |
| 20260906122603 | 18 | 270 | 11.3 | 20.9 | 0.00 | 0.00 | 0.00 | 4 | 1012.1 |
| 20260906122048 | 18 | 337 | 11.3 | 25.7 | 0.00 | 0.00 | 0.00 | 4 | 1012.3 |
| 20260906121533 | 18 | 45 | 16.1 | 29.0 | 0.00 | 0.00 | 0.00 | 4 | 1010.3 |
| 20260906121012 | 17 | 0 | 11.3 | 16.1 | 0.00 | 0.00 | 0.00 | 4 | 1010.7 |
| 20260906120957 | 17 | 315 | 14.5 | 25.7 | 0.00 | 0.00 | 0.00 | 4 | 1011.4 |
| 20260906120442 | 17 | 337 | 12.9 | 27.4 | 0.00 | 0.00 | 0.00 | 4 | 1011.1 |
| 20260906115927 | 18 | 45 | 8.0 | 19.3 | 0.00 | 0.00 | 0.00 | 4 | 1010.5 |
| 20260906115406 | 18 | 315 | 9.7 | 17.7 | 0.00 | 0.00 | 0.00 | 4 | 1011.0 |
| 20260906114844 | 18 | 270 | 9.7 | 11.3 | 0.00 | 0.00 | 0.00 | 4 | 1012.4 |
| 20260906114829 | 18 | 270 | 8.0 | 17.7 | 0.00 | 0.00 | 0.00 | 4 | 1012.3 |
| 20260906114314 | 17 | 0 | 14.5 | 22.5 | 0.00 | 0.00 | 0.00 | 5 | 1011.6 |
| 20260906113753 | 17 | 337 | 14.5 | 22.5 | 0.00 | 0.00 | 0.00 | 5 | 1010.6 |
| 20260906113238 | 17 | 315 | 16.1 | 30.6 | 0.00 | 0.00 | 0.00 | 5 | 1009.2 |
| 20260906112717 | 17 | 90 | 0.0 | 0.0 | 0.00 | 0.00 | 0.00 | 4 | 1011.6 |
| 20260906112701 | 17 | 45 | 12.9 | 25.7 | 0.00 | 0.00 | 0.00 | 4 | 1011.9 |
| 20260906112140 | 17 | 0 | 12.9 | 24.1 | 0.00 | 0.00 | 0.00 | 5 | 1011.3 |
| 20260906111625 | 18 | 337 | 9.7 | 19.3 | 0.00 | 0.00 | 0.00 | 5 | 1011.8 |
| 20260906111110 | 17 | 315 | 6.4 | 12.9 | 0.00 | 0.00 | 0.00 | 4 | 1012.1 |
| 20260906110549 | 17 | 270 | 4.8 | 6.4 | 0.00 | 0.00 | 0.00 | 5 | 1010.8 |
| 20260906110533 | 17 | 270 | 14.5 | 25.7 | 0.00 | 0.00 | 0.00 | 5 | 1010.3 |
| 20260906110018 | 17 | 270 | 14.5 | 27.4 | 0.00 | 0.00 | 0.00 | 5 | 1011.5 |
| 20260906105457 | 16 | 315 | 12.9 | 25.7 | 0.00 | 0.00 | 0.00 | 5 | 1009.6 |
| 20260906104942 | 17 | 337 | 8.0 | 16.1 | 0.00 | 0.00 | 0.00 | 5 | 1010.4 |
| 20260906104421 | 17 | 270 | 12.9 | 14.5 | 0.00 | 0.00 | 0.00 | 5 | 1010.4 |
| 20260906104405 | 17 | 247 | 12.9 | 20.9 | 0.00 | 0.00 | 0.00 | 5 | 1011.1 |
| 20260906103844 | 17 | 45 | 8.0 | 16.1 | 0.00 | 0.00 | 0.00 | 5 | 1014.5 |
| 20260906103329 | 16 | 0 | 11.3 | 22.5 | 0.00 | 0.00 | 0.00 | 5 | 1011.0 |
| 20260906102814 | 15 | 337 | 9.7 | 22.5 | 0.00 | 0.00 | 0.00 | 5 | 1011.2 |
| 20260906102253 | 16 | 337 | 0.0 | 0.0 | 0.00 | 0.00 | 0.00 | 5 | 1010.1 |
| 20260906102229 | 16 | 315 | 9.7 | 20.9 | 0.00 | 0.00 | 0.00 | 5 | 1010.9 |
| 20260906101714 | 17 | 180 | 9.7 | 20.9 | 0.00 | 0.00 | 0.00 | 5 | 1014.9 |
| 20260906101159 | 16 | 0 | 14.5 | 33.8 | 0.00 | 0.00 | 0.00 | 5 | 1012.0 |
| 20260906100638 | 17 | 270 | 0.0 | 0.0 | 0.00 | 0.00 | 0.00 | 5 | 1013.4 |
| 20260906100616 | 17 | 270 | 9.7 | 17.7 | 0.00 | 0.00 | 0.00 | 5 | 1013.2 |
| 20260906095546 | 16 | 315 | 14.5 | 20.9 | 0.00 | 0.00 | 0.00 | 5 | 1010.5 |
| 20260906095022 | 15 | 292 | 9.7 | 14.5 | 0.00 | 0.00 | 0.00 | 5 | 1012.8 |
| 20260906094958 | 15 | 270 | 11.3 | 20.9 | 0.00 | 0.00 | 0.00 | 5 | 1012.5 |
| 20260906094443 | 15 | 292 | 12.9 | 24.1 | 0.00 | 0.00 | 0.00 | 6 | 1010.3 |
| 20260906093928 | 15 | 0 | 16.1 | 24.1 | 0.00 | 0.00 | 0.00 | 5 | 1010.5 |
| 20260906093407 | 15 | 292 | 20.9 | 25.7 | 0.00 | 0.00 | 0.00 | 5 | 1010.8 |
| 20260906093350 | 15 | 292 | 16.1 | 29.0 | 0.00 | 0.00 | 0.00 | 5 | 1010.7 |
| 20260906092829 | 16 | 337 | 12.9 | 27.4 | 0.00 | 0.00 | 0.00 | 5 | 1011.2 |
| 20260906092314 | 16 | 270 | 14.5 | 22.5 | 0.00 | 0.00 | 0.00 | 5 | 1012.0 |
| 20260906091759 | 16 | 315 | 11.3 | 19.3 | 0.00 | 0.00 | 0.00 | 5 | 1012.8 |
| 20260906091238 | 14 | 292 | 6.4 | 8.0 | 0.00 | 0.00 | 0.00 | 6 | 1011.0 |
| 20260906091222 | 14 | 315 | 8.0 | 17.7 | 0.00 | 0.00 | 0.00 | 6 | 1010.9 |
| 20260906090701 | 15 | 0 | 9.7 | 19.3 | 0.00 | 0.00 | 0.00 | 5 | 1011.9 |
| 20260906090146 | 15 | 292 | 12.9 | 25.7 | 0.00 | 0.00 | 0.00 | 5 | 1012.0 |
| 20260906085631 | 15 | 337 | 9.7 | 19.3 | 0.00 | 0.00 | 0.00 | 6 | 1011.9 |
| 20260906085110 | 16 | 0 | 8.0 | 11.3 | 0.00 | 0.00 | 0.00 | 6 | 1013.4 |
| 20260906085054 | 16 | 45 | 6.4 | 11.3 | 0.00 | 0.00 | 0.00 | 6 | 1013.6 |
| 20260906084533 | 15 | 337 | 11.3 | 17.7 | 0.00 | 0.00 | 0.00 | 6 | 1012.9 |
| 20260906084018 | 15 | 292 | 12.9 | 17.7 | 0.00 | 0.00 | 0.00 | 6 | 1014.3 |
| 20260906083503 | 14 | 270 | 11.3 | 19.3 | 0.00 | 0.00 | 0.00 | 6 | 1013.2 |
| 20260906082942 | 14 | 337 | 6.4 | 9.7 | 0.00 | 0.00 | 0.00 | 6 | 1012.4 |
| 20260906082919 | 15 | 0 | 9.7 | 20.9 | 0.00 | 0.00 | 0.00 | 6 | 1011.5 |
| 20260906082404 | 15 | 45 | 8.0 | 19.3 | 0.00 | 0.00 | 0.00 | 6 | 1013.0 |
| 20260906081849 | 14 | 0 | 11.3 | 17.7 | 0.00 | 0.00 | 0.00 | 6 | 1012.5 |
| 20260906081328 | 14 | 0 | 9.7 | 12.9 | 0.00 | 0.00 | 0.00 | 6 | 1012.9 |
| 20260906081310 | 14 | 0 | 9.7 | 19.3 | 0.00 | 0.00 | 0.00 | 6 | 1012.6 |
| 20260906080749 | 13 | 337 | 14.5 | 22.5 | 0.00 | 0.00 | 0.00 | 6 | 1014.0 |
| 20260906080233 | 13 | 337 | 11.3 | 20.9 | 0.00 | 0.00 | 0.00 | 7 | 1013.9 |
| 20260906075712 | 13 | 292 | 8.0 | 11.3 | 0.00 | 0.00 | 0.00 | 6 | 1013.0 |
| 20260906075655 | 13 | 270 | 14.5 | 22.5 | 0.00 | 0.00 | 0.00 | 6 | 1013.2 |
| 20260906075134 | 14 | 270 | 14.5 | 24.1 | 0.00 | 0.00 | 0.00 | 6 | 1014.4 |
| 20260906074619 | 15 | 0 | 9.7 | 17.7 | 0.00 | 0.00 | 0.00 | 7 | 1014.4 |
| 20260906074104 | 14 | 337 | 11.3 | 24.1 | 0.00 | 0.00 | 0.00 | 7 | 1013.8 |
| 20260906073543 | 13 | 45 | 8.0 | 12.9 | 0.00 | 0.00 | 0.00 | 7 | 1015.8 |
| 20260906073527 | 13 | 0 | 12.9 | 24.1 | 0.00 | 0.00 | 0.00 | 7 | 1015.7 |
| 20260906073006 | 13 | 0 | 14.5 | 24.1 | 0.00 | 0.00 | 0.00 | 7 | 1014.8 |
| 20260906072451 | 13 | 315 | 11.3 | 27.4 | 0.00 | 0.00 | 0.00 | 7 | 1014.1 |
| 20260906071936 | 13 | 315 | 11.3 | 20.9 | 0.00 | 0.00 | 0.00 | 7 | 1013.9 |
| 20260906071415 | 13 | 337 | 8.0 | 9.7 | 0.00 | 0.00 | 0.00 | 7 | 1015.2 |
| 20260906071352 | 13 | 0 | 12.9 | 20.9 | 0.00 | 0.00 | 0.00 | 7 | 1015.0 |
| 20260906070837 | 13 | 315 | 12.9 | 19.3 | 0.00 | 0.00 | 0.00 | 7 | 1014.0 |
| 20260906070322 | 13 | 337 | 12.9 | 22.5 | 0.00 | 0.00 | 0.00 | 7 | 1014.0 |
| 20260906065801 | 13 | 337 | 8.0 | 11.3 | 0.00 | 0.00 | 0.00 | 7 | 1015.2 |
| 20260906065744 | 13 | 0 | 14.5 | 19.3 | 0.00 | 0.00 | 0.00 | 7 | 1015.1 |
| 20260906065223 | 13 | 315 | 9.7 | 19.3 | 0.00 | 0.00 | 0.00 | 7 | 1013.8 |
| 20260906064708 | 13 | 315 | 9.7 | 19.3 | 0.00 | 0.00 | 0.00 | 7 | 1015.3 |
| 20260906064153 | 12 | 315 | 11.3 | 20.9 | 0.00 | 0.00 | 0.00 | 7 | 1014.6 |
| 20260906063632 | 12 | 0 | 12.9 | 16.1 | 0.00 | 0.00 | 0.00 | 7 | 1014.2 |
| 20260906063608 | 12 | 315 | 16.1 | 25.7 | 0.00 | 0.00 | 0.00 | 7 | 1013.7 |
| 20260906063053 | 12 | 0 | 14.5 | 24.1 | 0.00 | 0.00 | 0.00 | 7 | 1014.8 |
| 20260906062538 | 12 | 315 | 11.3 | 19.3 | 0.00 | 0.00 | 0.00 | 8 | 1013.7 |
| 20260906062017 | 12 | 270 | 11.3 | 14.5 | 0.00 | 0.00 | 0.00 | 7 | 1013.1 |
| 20260906061952 | 12 | 337 | 11.3 | 17.7 | 0.00 | 0.00 | 0.00 | 7 | 1012.6 |
| 20260906061437 | 12 | 270 | 8.0 | 14.5 | 0.00 | 0.00 | 0.00 | 7 | 1014.2 |
| 20260906060922 | 12 | 270 | 8.0 | 14.5 | 0.00 | 0.00 | 0.00 | 7 | 1014.3 |
| 20260906060401 | 12 | 292 | 6.4 | 8.0 | 0.00 | 0.00 | 0.00 | 7 | 1014.2 |
| 20260906060345 | 12 | 292 | 9.7 | 16.1 | 0.00 | 0.00 | 0.00 | 7 | 1014.1 |
| 20260906055830 | 12 | 270 | 9.7 | 16.1 | 0.00 | 0.00 | 0.00 | 7 | 1014.4 |
| 20260906055309 | 11 | 270 | 11.3 | 19.3 | 0.00 | 0.00 | 0.00 | 7 | 1014.1 |
| 20260906054754 | 11 | 292 | 11.3 | 19.3 | 0.00 | 0.00 | 0.00 | 7 | 1014.5 |
| 20260906054233 | 10 | 270 | 8.0 | 11.3 | 0.00 | 0.00 | 0.00 | 8 | 1015.7 |
| 20260906054217 | 10 | 270 | 9.7 | 14.5 | 0.00 | 0.00 | 0.00 | 8 | 1015.6 |
| 20260906053656 | 10 | 270 | 11.3 | 19.3 | 0.00 | 0.00 | 0.00 | 8 | 1015.5 |
| 20260906053141 | 10 | 270 | 11.3 | 16.1 | 0.00 | 0.00 | 0.00 | 8 | 1014.3 |
| 20260906052626 | 10 | 247 | 11.3 | 14.5 | 0.00 | 0.00 | 0.00 | 8 | 1014.8 |
| 20260906052105 | 10 | 247 | 6.4 | 9.7 | 0.00 | 0.00 | 0.00 | 8 | 1014.9 |
| 20260906052041 | 10 | 225 | 9.7 | 14.5 | 0.00 | 0.00 | 0.00 | 8 | 1014.6 |
| 20260906051526 | 10 | 247 | 8.0 | 14.5 | 0.00 | 0.00 | 0.00 | 8 | 1015.4 |
| 20260906051011 | 10 | 270 | 9.7 | 16.1 | 0.00 | 0.00 | 0.00 | 8 | 1014.9 |
| 20260906050450 | 10 | 270 | 9.7 | 12.9 | 0.00 | 0.00 | 0.00 | 8 | 1014.9 |
| 20260906050433 | 10 | 247 | 9.7 | 14.5 | 0.00 | 0.00 | 0.00 | 8 | 1014.9 |
| 20260906045912 | 10 | 247 | 11.3 | 17.7 | 0.00 | 0.00 | 0.00 | 8 | 1015.0 |
| 20260906045357 | 10 | 247 | 11.3 | 16.1 | 0.00 | 0.00 | 0.00 | 8 | 1014.6 |
| 20260906044842 | 10 | 247 | 11.3 | 16.1 | 0.00 | 0.00 | 0.00 | 8 | 1015.2 |
| 20260906044321 | 10 | 247 | 11.3 | 12.9 | 0.00 | 0.00 | 0.00 | 8 | 1014.7 |
| 20260906044257 | 10 | 247 | 11.3 | 16.1 | 0.00 | 0.00 | 0.00 | 8 | 1014.8 |
| 20260906043742 | 10 | 247 | 14.5 | 17.7 | 0.00 | 0.00 | 0.00 | 8 | 1014.2 |
| 20260906043227 | 10 | 247 | 12.9 | 17.7 | 0.00 | 0.00 | 0.00 | 8 | 1013.8 |
| 20260906042706 | 10 | 247 | 14.5 | 17.7 | 0.00 | 0.00 | 0.00 | 8 | 1013.1 |
| 20260906042642 | 10 | 225 | 14.5 | 20.9 | 0.00 | 0.00 | 0.00 | 8 | 1013.3 |
| 20260906042127 | 10 | 247 | 11.3 | 16.1 | 0.00 | 0.00 | 0.00 | 8 | 1014.4 |
| 20260906041612 | 10 | 247 | 9.7 | 14.5 | 0.00 | 0.00 | 0.00 | 8 | 1013.9 |
| 20260906041050 | 10 | 270 | 9.7 | 12.9 | 0.00 | 0.00 | 0.00 | 8 | 1013.8 |
| 20260906041034 | 10 | 270 | 12.9 | 17.7 | 0.00 | 0.00 | 0.00 | 8 | 1014.0 |
| 20260906040519 | 11 | 270 | 9.7 | 14.5 | 0.00 | 0.00 | 0.00 | 8 | 1013.4 |
| 20260906035958 | 10 | -1 | 11.3 | 14.5 | 0.00 | 0.00 | 0.00 | 8 | 1014.6 |
| 20260906035443 | 10 | -1 | 9.7 | 16.1 | 0.00 | 0.00 | 0.00 | 8 | 1014.1 |
| 20260906034922 | 11 | 270 | 11.3 | 14.5 | 0.00 | 0.00 | 0.00 | 8 | 1013.5 |
| 20260906034904 | 11 | 270 | 11.3 | 16.1 | 0.00 | 0.00 | 0.00 | 8 | 1013.7 |
| 20260906034343 | 10 | -1 | 12.9 | 17.7 | 0.00 | 0.00 | 0.00 | 8 | 1014.2 |
| 20260906033828 | 11 | -1 | 14.5 | 17.7 | 0.00 | 0.00 | 0.00 | 8 | 1012.8 |
| 20260906033307 | 11 | -1 | 8.0 | 11.3 | 0.00 | 0.00 | 0.00 | 8 | 1012.9 |
| 20260906033250 | 11 | -1 | 8.0 | 12.9 | 0.00 | 0.00 | 0.00 | 8 | 1012.5 |
| 20260906032729 | 11 | -1 | 4.8 | 9.7 | 0.00 | 0.00 | 0.00 | 7 | 1012.3 |
| 20260906032214 | 12 | -1 | 8.0 | 19.3 | 0.00 | 0.00 | 0.00 | 7 | 1011.6 |
| 20260906031659 | 12 | -1 | 11.3 | 14.5 | 0.00 | 0.00 | 0.00 | 7 | 1012.0 |
| 20260906031138 | 12 | 270 | 11.3 | 14.5 | 0.00 | 0.00 | 0.00 | 7 | 1011.5 |
| 20260906031122 | 12 | 315 | 12.9 | 20.9 | 0.00 | 0.00 | 0.00 | 7 | 1011.8 |
| 20260906030601 | 12 | 315 | 11.3 | 22.5 | 0.00 | 0.00 | 0.00 | 7 | 1012.0 |
| 20260906030046 | 12 | 292 | 12.9 | 22.5 | 0.00 | 0.00 | 0.00 | 7 | 1012.2 |
| 20260906025531 | 12 | 270 | 14.5 | 19.3 | 0.00 | 0.00 | 0.00 | 7 | 1012.6 |
| 20260906025010 | 12 | 315 | 11.3 | 14.5 | 0.00 | 0.00 | 0.00 | 7 | 1012.3 |
| 20260906024954 | 12 | 315 | 14.5 | 20.9 | 0.00 | 0.00 | 0.00 | 7 | 1012.1 |
| 20260906024433 | 12 | 292 | 16.1 | 22.5 | 0.00 | 0.00 | 0.00 | 7 | 1012.5 |
| 20260906023918 | 12 | 270 | 16.1 | 22.5 | 0.00 | 0.00 | 0.00 | 7 | 1012.5 |
| 20260906023403 | 12 | 315 | 14.5 | 19.3 | 0.00 | 0.00 | 0.00 | 7 | 1012.4 |
| 20260906022842 | 12 | 270 | 4.8 | 6.4 | 0.00 | 0.00 | 0.00 | 7 | 1012.4 |
| 20260906022826 | 12 | 315 | 12.9 | 17.7 | 0.00 | 0.00 | 0.00 | 7 | 1012.0 |
| 20260906022307 | 12 | 292 | 14.5 | 22.5 | 0.00 | 0.00 | 0.00 | 7 | 1012.6 |
| 20260906021750 | 12 | 292 | 16.1 | 22.5 | 0.00 | 0.00 | 0.00 | 7 | 1012.6 |
| 20260906021235 | 12 | 292 | 16.1 | 20.9 | 0.00 | 0.00 | 0.00 | 7 | 1012.4 |
| 20260906020714 | 12 | 292 | 17.7 | 22.5 | 0.00 | 0.00 | 0.00 | 7 | 1012.1 |
| 20260906020658 | 12 | 315 | 17.7 | 27.4 | 0.00 | 0.00 | 0.00 | 7 | 1012.0 |
| 20260906020137 | 12 | 315 | 16.1 | 24.1 | 0.00 | 0.00 | 0.00 | 7 | 1012.1 |
| 20260906015622 | 12 | 315 | 17.7 | 27.4 | 0.00 | 0.00 | 0.00 | 7 | 1011.7 |
| 20260906015107 | 12 | 315 | 16.1 | 20.9 | 0.00 | 0.00 | 0.00 | 7 | 1012.2 |
| 20260906014546 | 12 | 315 | 11.3 | 16.1 | 0.00 | 0.00 | 0.00 | 7 | 1012.1 |
| 20260906014530 | 12 | 315 | 12.9 | 19.3 | 0.00 | 0.00 | 0.00 | 7 | 1012.2 |
| 20260906014009 | 12 | 315 | 14.5 | 16.1 | 0.00 | 0.00 | 0.00 | 7 | 1012.1 |
| 20260906013454 | 12 | 315 | 11.3 | 16.1 | 0.00 | 0.00 | 0.00 | 7 | 1012.0 |
| 20260906012939 | 12 | 315 | 14.5 | 19.3 | 0.00 | 0.00 | 0.00 | 7 | 1012.0 |
| 20260906012418 | 12 | 337 | 11.3 | 14.5 | 0.00 | 0.00 | 0.00 | 7 | 1012.0 |
| 20260906012400 | 12 | 270 | 12.9 | 19.3 | 0.00 | 0.00 | 0.00 | 7 | 1012.0 |
| 20260906011845 | 13 | 315 | 14.5 | 24.1 | 0.00 | 0.00 | 0.00 | 7 | 1011.6 |
| 20260906011324 | 13 | 315 | 16.1 | 24.1 | 0.00 | 0.00 | 0.00 | 7 | 1011.4 |
| 20260906010803 | 13 | 337 | 19.3 | 25.7 | 0.00 | 0.00 | 0.00 | 7 | 1011.5 |
| 20260906010746 | 13 | 315 | 17.7 | 27.4 | 0.00 | 0.00 | 0.00 | 7 | 1011.5 |
| 20260906010231 | 13 | 337 | 12.9 | 22.5 | 0.00 | 0.00 | 0.00 | 7 | 1011.6 |
| 20260906005710 | 13 | 315 | 14.5 | 20.9 | 0.00 | 0.00 | 0.00 | 7 | 1011.4 |
| 20260906005155 | 13 | 315 | 16.1 | 22.5 | 0.00 | 0.00 | 0.00 | 7 | 1011.5 |
| 20260906004634 | 13 | 315 | 9.7 | 12.9 | 0.00 | 0.00 | 0.00 | 7 | 1011.6 |
| 20260906004618 | 13 | 315 | 11.3 | 19.3 | 0.00 | 0.00 | 0.00 | 7 | 1011.3 |
| 20260906004057 | 13 | 315 | 14.5 | 20.9 | 0.00 | 0.00 | 0.00 | 7 | 1011.4 |
| 20260906003542 | 13 | 337 | 14.5 | 22.5 | 0.00 | 0.00 | 0.00 | 7 | 1011.2 |
| 20260906003027 | 13 | 315 | 16.1 | 22.5 | 0.00 | 0.00 | 0.00 | 7 | 1011.1 |
| 20260906002506 | 13 | 315 | 17.7 | 22.5 | 0.00 | 0.00 | 0.00 | 7 | 1011.3 |
| 20260906002450 | 13 | 292 | 17.7 | 27.4 | 0.00 | 0.00 | 0.00 | 7 | 1011.1 |
| 20260906001935 | 13 | 315 | 14.5 | 19.3 | 0.00 | 0.00 | 0.00 | 7 | 1010.9 |
| 20260906001414 | 13 | 337 | 9.7 | 16.1 | 0.00 | 0.00 | 0.00 | 7 | 1010.6 |
| 20260906000859 | 13 | 315 | 8.0 | 14.5 | 0.00 | 0.00 | 0.00 | 6 | 1010.0 |
| 20260906000340 | 13 | 270 | 6.4 | 9.7 | 0.00 | 0.00 | 0.00 | 6 | 1010.4 |
| 20260906000322 | 13 | 292 | 8.0 | 14.5 | 0.00 | 0.00 | 0.00 | 6 | 1010.7 |
| 20260905235801 | 13 | 270 | 8.0 | 16.1 | 0.00 | 0.00 | 0.18 | 6 | 1011.1 |
| 20260905235246 | 13 | 270 | 4.8 | 8.0 | 0.00 | 0.00 | 0.18 | 6 | 1010.3 |
| 20260905234731 | 13 | 270 | 4.8 | 9.7 | 0.00 | 0.00 | 0.18 | 6 | 1010.3 |
| 20260905234210 | 13 | 270 | 0.0 | 0.0 | 0.00 | 0.00 | 0.18 | 6 | 1010.9 |
| 20260905234155 | 13 | 270 | 4.8 | 6.4 | 0.00 | 0.00 | 0.18 | 6 | 1010.9 |
| 20260905233640 | 13 | 247 | 0.0 | 0.0 | 0.00 | 0.00 | 0.18 | 6 | 1010.2 |
| 20260905233119 | 13 | 270 | 4.8 | 8.0 | 0.00 | 0.00 | 0.18 | 6 | 1010.9 |
| 20260905232604 | 13 | 270 | 6.4 | 12.9 | 0.00 | 0.00 | 0.18 | 6 | 1010.4 |
| 20260905232043 | 14 | 270 | 6.4 | 8.0 | 0.00 | 0.00 | 0.18 | 6 | 1010.4 |
| 20260905232027 | 14 | 270 | 8.0 | 16.1 | 0.00 | 0.00 | 0.18 | 6 | 1010.3 |
| 20260905231506 | 14 | 270 | 8.0 | 12.9 | 0.00 | 0.00 | 0.18 | 6 | 1010.4 |
| 20260905230951 | 14 | 270 | 6.4 | 11.3 | 0.00 | 0.00 | 0.18 | 6 | 1010.2 |
| 20260905230436 | 14 | 270 | 8.0 | 14.5 | 0.00 | 0.00 | 0.18 | 6 | 1010.1 |
| 20260905225914 | 14 | 270 | 4.8 | 4.8 | 0.00 | 0.00 | 0.18 | 6 | 1010.4 |
| 20260905225859 | 14 | 270 | 6.4 | 12.9 | 0.00 | 0.00 | 0.18 | 6 | 1010.4 |
| 20260905225338 | 14 | 270 | 6.4 | 11.3 | 0.00 | 0.00 | 0.18 | 6 | 1010.8 |
| 20260905224823 | 15 | 315 | 9.7 | 16.1 | 0.00 | 0.00 | 0.18 | 6 | 1009.4 |
| 20260905224308 | 15 | 315 | 11.3 | 16.1 | 0.00 | 0.00 | 0.18 | 6 | 1009.5 |
| 20260905223747 | 15 | 270 | 8.0 | 12.9 | 0.00 | 0.00 | 0.18 | 6 | 1009.6 |
| 20260905223731 | 15 | 270 | 11.3 | 22.5 | 0.00 | 0.00 | 0.18 | 6 | 1009.7 |
| 20260905223210 | 15 | 270 | 12.9 | 20.9 | 0.00 | 0.00 | 0.18 | 6 | 1009.5 |
| 20260905222655 | 15 | 270 | 14.5 | 25.7 | 0.00 | 0.00 | 0.18 | 6 | 1009.4 |
| 20260905222140 | 15 | 270 | 16.1 | 24.1 | 0.00 | 0.00 | 0.18 | 5 | 1009.2 |
| 20260905221619 | 15 | 270 | 12.9 | 16.1 | 0.00 | 0.00 | 0.18 | 5 | 1009.1 |
| 20260905221603 | 15 | 270 | 17.7 | 25.7 | 0.00 | 0.00 | 0.18 | 5 | 1009.3 |
| 20260905221042 | 15 | 270 | 14.5 | 24.1 | 0.00 | 0.00 | 0.18 | 5 | 1009.8 |
| 20260905220527 | 15 | 270 | 16.1 | 22.5 | 0.00 | 0.00 | 0.18 | 5 | 1009.5 |
| 20260905220012 | 15 | 292 | 14.5 | 24.1 | 0.00 | 0.00 | 0.18 | 5 | 1009.7 |
| 20260905215451 | 15 | 292 | 14.5 | 19.3 | 0.00 | 0.00 | 0.18 | 5 | 1009.0 |
| 20260905215427 | 15 | 270 | 16.1 | 24.1 | 0.00 | 0.00 | 0.18 | 5 | 1009.0 |
| 20260905214912 | 15 | 270 | 14.5 | 22.5 | 0.00 | 0.00 | 0.18 | 5 | 1009.0 |
| 20260905214357 | 15 | 270 | 12.9 | 20.9 | 0.00 | 0.00 | 0.18 | 5 | 1009.0 |
| 20260905213836 | 15 | 270 | 9.7 | 12.9 | 0.00 | 0.00 | 0.18 | 5 | 1009.3 |
| 20260905213819 | 15 | 292 | 9.7 | 16.1 | 0.00 | 0.00 | 0.18 | 5 | 1008.9 |
| 20260905213258 | 15 | 270 | 12.9 | 25.7 | 0.00 | 0.00 | 0.18 | 5 | 1008.8 |
| 20260905212743 | 15 | 315 | 14.5 | 24.1 | 0.00 | 0.00 | 0.18 | 5 | 1008.4 |
| 20260905212228 | 15 | 270 | 16.1 | 22.5 | 0.00 | 0.00 | 0.18 | 5 | 1008.4 |
| 20260905211707 | 15 | 270 | 11.3 | 14.5 | 0.00 | 0.00 | 0.18 | 5 | 1008.6 |
| 20260905211651 | 15 | 270 | 16.1 | 25.7 | 0.00 | 0.00 | 0.18 | 5 | 1008.8 |
| 20260905211130 | 15 | 270 | 20.9 | 30.6 | 0.00 | 0.00 | 0.18 | 5 | 1008.6 |
| 20260905210615 | 15 | 270 | 19.3 | 32.2 | 0.00 | 0.00 | 0.18 | 5 | 1008.4 |
| 20260905210100 | 15 | 270 | 16.1 | 27.4 | 0.00 | 0.00 | 0.18 | 5 | 1008.1 |
| 20260905205539 | 15 | 270 | 17.7 | 22.5 | 0.00 | 0.00 | 0.18 | 5 | 1008.2 |
| 20260905205524 | 15 | 270 | 20.9 | 30.6 | 0.00 | 0.00 | 0.18 | 5 | 1008.0 |
| 20260905205003 | 15 | 270 | 17.7 | 24.1 | 0.00 | 0.00 | 0.18 | 5 | 1008.0 |
| 20260905204448 | 15 | 270 | 19.3 | 29.0 | 0.00 | 0.00 | 0.18 | 5 | 1008.1 |
| 20260905203933 | 15 | 270 | 20.9 | 33.8 | 0.00 | 0.00 | 0.18 | 5 | 1007.9 |
| 20260905203412 | 15 | 270 | 14.5 | 19.3 | 0.00 | 0.00 | 0.18 | 5 | 1008.4 |
| 20260905203356 | 15 | -1 | 16.1 | 24.1 | 0.00 | 0.00 | 0.18 | 5 | 1008.3 |
| 20260905202835 | 15 | -1 | 19.3 | 29.0 | 0.00 | 0.00 | 0.18 | 5 | 1008.3 |
| 20260905202320 | 15 | 270 | 16.1 | 24.1 | 0.00 | 0.00 | 0.18 | 5 | 1008.0 |
| 20260905201805 | 15 | 270 | 14.5 | 22.5 | 0.00 | 0.00 | 0.18 | 5 | 1008.1 |
| 20260905201244 | 15 | 270 | 8.0 | 11.3 | 0.00 | 0.00 | 0.18 | 5 | 1007.9 |
| 20260905201227 | 15 | 270 | 14.5 | 24.1 | 0.00 | 0.00 | 0.18 | 5 | 1007.7 |
| 20260905200706 | 15 | 270 | 12.9 | 20.9 | 0.00 | 0.00 | 0.18 | 5 | 1007.9 |
| 20260905200151 | 16 | -1 | 12.9 | 20.9 | 0.00 | 0.00 | 0.18 | 5 | 1007.7 |
| 20260905195636 | 16 | 270 | 14.5 | 22.5 | 0.00 | 0.00 | 0.18 | 5 | 1007.5 |
| 20260905195115 | 16 | 270 | 12.9 | 16.1 | 0.00 | 0.00 | 0.18 | 5 | 1007.2 |
| 20260905195059 | 16 | 270 | 19.3 | 29.0 | 0.00 | 0.00 | 0.18 | 5 | 1007.0 |
| 20260905194538 | 16 | 270 | 19.3 | 35.4 | 0.00 | 0.00 | 0.18 | 5 | 1007.3 |
| 20260905194023 | 16 | -1 | 19.3 | 27.4 | 0.00 | 0.00 | 0.18 | 5 | 1006.9 |
| 20260905193508 | 16 | 315 | 16.1 | 25.7 | 0.00 | 0.00 | 0.18 | 5 | 1006.4 |
| 20260905192947 | 16 | 270 | 16.1 | 20.9 | 0.00 | 0.00 | 0.18 | 5 | 1006.2 |
| 20260905192932 | 16 | 270 | 19.3 | 32.2 | 0.00 | 0.00 | 0.18 | 5 | 1005.9 |
| 20260905192411 | 16 | -1 | 17.7 | 32.2 | 0.00 | 0.00 | 0.18 | 5 | 1006.5 |
| 20260905191855 | 16 | -1 | 17.7 | 30.6 | 0.00 | 0.00 | 0.18 | 5 | 1006.6 |
| 20260905191340 | 16 | -1 | 17.7 | 30.6 | 0.00 | 0.00 | 0.18 | 5 | 1006.8 |
| 20260905190819 | 16 | 270 | 12.9 | 16.1 | 0.00 | 0.00 | 0.18 | 5 | 1006.9 |
| 20260905190802 | 16 | -1 | 17.7 | 29.0 | 0.00 | 0.00 | 0.18 | 5 | 1006.9 |
| 20260905190247 | 16 | -1 | 16.1 | 27.4 | 0.00 | 0.00 | 0.18 | 5 | 1006.8 |
| 20260905185726 | 17 | -1 | 19.3 | 27.4 | 0.00 | 0.00 | 0.18 | 5 | 1006.9 |
| 20260905185205 | 17 | 315 | 16.1 | 19.3 | 0.00 | 0.00 | 0.18 | 5 | 1006.4 |
| 20260905185148 | 17 | -1 | 16.1 | 27.4 | 0.00 | 0.00 | 0.18 | 5 | 1006.6 |
| 20260905184633 | 17 | 270 | 19.3 | 32.2 | 0.00 | 0.00 | 0.18 | 5 | 1006.7 |
| 20260905184112 | 17 | 292 | 22.5 | 35.4 | 0.00 | 0.00 | 0.18 | 5 | 1006.0 |
| 20260905183557 | 17 | 315 | 24.1 | 37.0 | 0.00 | 0.00 | 0.18 | 5 | 1006.2 |
| 20260905183035 | 17 | 270 | 16.1 | 20.9 | 0.00 | 0.00 | 0.18 | 5 | 1005.5 |
| 20260905183019 | 17 | 292 | 24.1 | 40.2 | 0.00 | 0.00 | 0.18 | 5 | 1005.3 |
| 20260905182458 | 17 | 292 | 27.4 | 40.2 | 0.00 | 0.00 | 0.18 | 5 | 1005.0 |
| 20260905181943 | 17 | 292 | 29.0 | 40.2 | 0.00 | 0.00 | 0.18 | 5 | 1005.7 |
| 20260905181428 | 17 | 270 | 29.0 | 43.5 | 0.00 | 0.00 | 0.18 | 5 | 1005.5 |
| 20260905180907 | 17 | 315 | 29.0 | 38.6 | 0.00 | 0.00 | 0.18 | 5 | 1005.2 |
| 20260905180852 | 17 | 315 | 29.0 | 46.7 | 0.00 | 0.00 | 0.18 | 5 | 1005.2 |
| 20260905180337 | 17 | 315 | 27.4 | 37.0 | 0.00 | 0.00 | 0.18 | 5 | 1005.4 |
| 20260905175816 | 17 | 270 | 24.1 | 33.8 | 0.00 | 0.00 | 0.18 | 5 | 1005.7 |
| 20260905175301 | 17 | 292 | 24.1 | 33.8 | 0.00 | 0.00 | 0.18 | 5 | 1005.4 |
| 20260905174740 | 17 | 292 | 17.7 | 24.1 | 0.00 | 0.00 | 0.18 | 5 | 1005.4 |
| 20260905174724 | 17 | 270 | 24.1 | 33.8 | 0.00 | 0.00 | 0.18 | 5 | 1005.1 |
| 20260905174203 | 18 | 315 | 25.7 | 48.3 | 0.00 | 0.00 | 0.18 | 5 | 1004.6 |
| 20260905173648 | 18 | 315 | 20.9 | 35.4 | 0.00 | 0.00 | 0.18 | 5 | 1004.8 |
| 20260905173133 | 18 | 315 | 22.5 | 33.8 | 0.00 | 0.00 | 0.18 | 5 | 1004.9 |
| 20260905172612 | 18 | 292 | 17.7 | 24.1 | 0.00 | 0.00 | 0.18 | 5 | 1003.9 |
| 20260905172548 | 18 | 292 | 20.9 | 32.2 | 0.00 | 0.00 | 0.18 | 5 | 1004.0 |
| 20260905172033 | 18 | 292 | 24.1 | 35.4 | 0.00 | 0.00 | 0.18 | 4 | 1004.6 |
| 20260905171518 | 18 | 270 | 24.1 | 33.8 | 0.00 | 0.00 | 0.18 | 4 | 1003.7 |
| 20260905170957 | 18 | 292 | 24.1 | 30.6 | 0.00 | 0.00 | 0.18 | 4 | 1003.8 |
| 20260905170940 | 18 | 292 | 27.4 | 38.6 | 0.00 | 0.00 | 0.18 | 4 | 1004.0 |
| 20260905170419 | 18 | 315 | 30.6 | 46.7 | 0.00 | 0.00 | 0.18 | 4 | 1003.8 |
| 20260905165904 | 19 | 315 | 29.0 | 41.8 | 0.00 | 0.00 | 0.18 | 4 | 1003.2 |